Weather History for Gwinn, MI

Change the Weather History Date:

Saturday, January 19, 2013

  Actual Average (KESC) Record (KESC)
Temperature  
Mean Temperature 18 °F -  
Max Temperature 30 °F 24 °F 41 °F (1991)
Min Temperature 7 °F 8 °F -20 °F (1984)
Degree Days  
Heating Degree Days 46    
Moisture  
Dew Point 13 °F    
Average Humidity 87    
Maximum Humidity 93    
Minimum Humidity 73    
Precipitation  
Precipitation 0.00 in - - ()
Sea Level Pressure  
Sea Level Pressure 29.62 in    
Wind  
Wind Speed 4 mph (West)    
Max Wind Speed 28 mph    
Max Gust Speed 40 mph    
Visibility 8 miles    
Events Snow    
Averages and records for this station are not official NWS values.
T = Trace of Precipitation, MM = Missing Value Source: NWS Daily Summary

Daily Weather History Graph

Daily Weather History Graph

Search for Another Location

Airport:

Trip Planner

Search our weather history database for the weather conditions in past years. The results will help you decide how hot, cold, wet, or windy it might be!

Date:

Astronomy

Jan. 19, 2013 Rise Set
Actual Time 8:25 AM EST 5:35 PM EST
Civil Twilight 7:52 AM EST 6:08 PM EST
Nautical Twilight 7:15 AM EST 6:45 PM EST
Astronomical Twilight 6:39 AM EST 7:21 PM EST
Moon 12:05 PM EST (1/19) 1:54 AM EST (1/19)
Length of Visible Light 10h 16m
Length of Day
9h 09m
First Quarter, 57% of the Moon is Illuminated
Jan 19
First Quarter
Jan 26
Full
Feb 3
Last Quarter
Feb 10
New
Feb 17
First Quarter

Hourly Weather History & Observations

Time (EST) Temp. Windchill Dew Point Humidity Pressure Visibility Wind Dir Wind Speed Gust Speed Precip Events Conditions
12:16 AM 16.7 °F - 14.0 °F 89% 29.70 in 10.0 mi Calm Calm - N/A   Overcast
12:37 AM 16.7 °F - 14.0 °F 89% 29.70 in 10.0 mi Calm Calm - N/A Snow Light Snow
12:57 AM 16.7 °F - 14.0 °F 89% 29.69 in 10.0 mi Calm Calm - N/A   Overcast
1:16 AM 16.3 °F - 13.8 °F 90% 29.69 in 10.0 mi Calm Calm - N/A   Overcast
1:37 AM 16.2 °F - 13.8 °F 90% 29.69 in 10.0 mi Calm Calm - N/A   Overcast
1:57 AM 15.8 °F - 13.6 °F 91% 29.69 in 10.0 mi Calm Calm - N/A   Overcast
2:17 AM 15.8 °F - 13.3 °F 90% 29.69 in 10.0 mi Calm Calm - N/A   Overcast
2:37 AM 14.9 °F - 12.9 °F 92% 29.69 in 10.0 mi Calm Calm - N/A   Scattered Clouds
2:57 AM 12.4 °F - 10.2 °F 91% 29.72 in 10.0 mi Calm Calm - N/A   Scattered Clouds
3:17 AM 11.7 °F - 9.9 °F 92% 29.71 in 10.0 mi Calm Calm - N/A   Scattered Clouds
3:37 AM 12.2 °F - 10.2 °F 92% 29.72 in 7.0 mi Calm Calm - N/A   Clear
3:57 AM 11.7 °F - 9.5 °F 91% 29.73 in 5.0 mi Calm Calm - N/A   Clear
4:16 AM 7.9 °F - 5.0 °F 88% 29.73 in 7.0 mi Calm Calm - N/A   Scattered Clouds
4:37 AM 9.7 °F - 7.2 °F 90% 29.72 in 7.0 mi Calm Calm - N/A   Mostly Cloudy
4:57 AM 11.1 °F - 8.6 °F 90% 29.71 in 10.0 mi Calm Calm - N/A   Scattered Clouds
5:17 AM 8.6 °F - 6.3 °F 90% 29.73 in 10.0 mi Calm Calm - N/A   Mostly Cloudy
5:37 AM 11.7 °F - 9.3 °F 90% 29.73 in 10.0 mi Calm Calm - N/A   Overcast
5:57 AM 12.9 °F - 10.6 °F 90% 29.73 in 10.0 mi Calm Calm - N/A   Overcast
6:50 AM 14.0 °F - 12.2 °F 93% 29.72 in 10.0 mi Calm Calm - N/A   Overcast
7:50 AM 14.0 °F - 12.2 °F 93% 29.71 in 10.0 mi Calm Calm - N/A   Overcast
8:50 AM 15.8 °F - 14.0 °F 93% 29.68 in 10.0 mi Calm Calm - N/A   Overcast
9:50 AM 15.8 °F - 14.0 °F 93% 29.67 in 7.0 mi Calm Calm - N/A   Overcast
10:50 AM 19.4 °F 8.6 °F 17.6 °F 93% 29.64 in 5.0 mi South 9.2 mph - N/A   Overcast
11:50 AM 21.2 °F 10.1 °F 17.6 °F 86% 29.63 in 7.0 mi SW 10.4 mph - N/A Snow Light Snow
12:45 PM 21.2 °F 9.5 °F 19.4 °F 93% 29.57 in 10.0 mi SSW 11.5 mph - N/A   Overcast
1:50 PM 23.0 °F 11.1 °F 21.2 °F 93% 29.50 in 7.0 mi SSW 12.7 mph - N/A   Overcast
2:50 PM 26.6 °F 18.2 °F 24.8 °F 93% 29.47 in 5.0 mi SW 8.1 mph - N/A   Overcast
3:50 PM 28.4 °F 19.1 °F 24.8 °F 86% 29.41 in 3.0 mi South 10.4 mph - N/A Snow Light Snow
4:18 PM 28.4 °F 18.5 °F 26.6 °F 93% 29.40 in 5.0 mi SSW 11.5 mph - N/A   Overcast
4:50 PM 28.4 °F 19.7 °F 26.6 °F 93% 29.40 in 2.5 mi SW 9.2 mph - N/A Snow Light Snow
6:50 PM 30.2 °F 18.1 °F 24.8 °F 80% 29.41 in 5.0 mi WNW 18.4 mph 27.6 mph N/A Snow Light Snow
7:50 PM 26.6 °F 10.8 °F 21.2 °F 80% 29.42 in 7.0 mi WNW 27.6 mph 32.2 mph N/A   Mostly Cloudy
8:50 PM 23.0 °F 8.3 °F 17.6 °F 80% 29.44 in 7.0 mi NW 19.6 mph 26.5 mph N/A Snow Light Snow
9:50 PM 17.6 °F 0.1 °F 10.4 °F 73% 29.50 in 2.5 mi NNW 23.0 mph 35.7 mph N/A Snow Light Snow
10:17 PM 15.4 °F -3.5 °F 8.2 °F 73% 29.53 in 3.0 mi NW 25.3 mph 40.3 mph N/A   Haze
10:37 PM 14.2 °F -3.6 °F 6.8 °F 73% 29.55 in 5.0 mi NW 20.7 mph 31.1 mph N/A Snow Light Snow
10:57 PM 13.6 °F -5.6 °F 6.8 °F 74% 29.56 in 7.0 mi NW 24.2 mph 31.1 mph N/A Snow Light Snow
11:17 PM 12.4 °F -5.1 °F 5.7 °F 75% 29.58 in 7.0 mi NW 18.4 mph 31.1 mph N/A   Mostly Cloudy
11:37 PM 11.3 °F -7.9 °F 4.8 °F 75% 29.59 in 5.0 mi NW 21.9 mph 27.6 mph N/A   Haze
11:57 PM 10.9 °F -8.3 °F 4.5 °F 75% 29.61 in 4.0 mi NW 21.9 mph 29.9 mph N/A Snow Light Snow